Location: D�pe
(52.6057°N, 8.1808°E)
Time: 07:39:49
(UTC+00:00)

Cosmos 2151 - Pass Details

Date: 29 October 2020
Orbit: 580 x 601 km, 82.5° (Epoch: 01 December)

Event Time Altitude Azimuth Distance (km) Brightness Sun altitude
Rises 19:08:00 0° 343° (NNW) 2,823 6.9 -28.5°
Reaches altitude 10° 19:10:19 10° 335° (NNW) 1,916 6.0 -28.9°
Enters shadow 19:14:03 37° 273° (W) 925 4.3 -29.4°
